Flag for Paraguay Weather past 2 weeks in Asuncion, Paraguay

Now
73 °F

Broken clouds.


Feels Like: 74 °F
Forecast: 70 / 82 °F
Wind: 7 mph from Northeast

Location: Asuncion / Aeropuerto

Current Time: May 22, 2015 at 8:41:55 AM

Latest Report: May 22, 2015 at 8:00 AM


Visibility: N/A

Pressure: 29.98 "Hg

Humidity: 78%

Dew point: 66 °F

Location of AsuncionLocation

Historic Weather in Asuncion — Graph

°F

Asuncion temperature yesterday

Maximum temperature yesterday: 82 °F (at 12:00 PM)
Minimum temperature yesterday: 68 °F (at 3:00 AM)
Average temperature yesterday: 74 °F

Past Weeks' High & Low Weather Summary

 TemperatureHumidityPressure
High82 °F (May 19, 1:00 PM)100% (May 9, 11:00 PM)30.18 "Hg (May 9, 11:00 PM)
Low54 °F (May 12, 5:00 AM)42% (May 7, 2:00 PM)29.86 "Hg (May 9, 4:00 PM)
Average69 °F84%30.04 "Hg
* Reported May 7 7:00 AM — May 22 7:30 AM, Asuncion, Weather by CustomWeather, © 2015

Note: Actual official high and low records may vary slightly from our data, if they occured in-between our weather recording intervals... More about our weather records

Advertising

Asuncion weather history for previous 24 hours

 ConditionsComfort  
Time TempWeatherWind HumidityBarometerVisibility
7:30 AM
Fri, May 22
72 °FBroken clouds.6 mph83%29.98 "HgN/A
7:00 AM72 °FBroken clouds.6 mph83%29.98 "HgN/A
6:00 AM72 °FBroken clouds.6 mph83%29.98 "HgN/A
5:00 AM72 °FPartly cloudy.6 mph83%29.95 "HgN/A
4:00 AM70 °FClear.3 mph88%29.95 "Hg10 mi
3:00 AM70 °FMild.No wind88%29.95 "HgN/A
2:00 AM72 °FPassing clouds.8 mph83%29.98 "HgN/A
1:00 AM72 °FPassing clouds.7 mph83%29.98 "HgN/A
12:00 AM72 °FPassing clouds.7 mph83%29.98 "HgN/A
11:00 PM
Thu, May 21
72 °FPassing clouds.6 mph83%29.98 "HgN/A
10:00 PM73 °FPassing clouds.6 mph78%29.98 "HgN/A
9:00 PM73 °FPassing clouds.8 mph83%29.98 "HgN/A
8:00 PM73 °FPassing clouds.6 mph83%29.95 "HgN/A
7:00 PM75 °FPassing clouds.6 mph78%29.95 "HgN/A
6:00 PM75 °FPassing clouds.7 mph78%29.95 "HgN/A
5:00 PM77 °FPassing clouds.7 mph79%29.95 "HgN/A
4:00 PM81 °FPassing clouds.7 mph70%29.95 "HgN/A
3:00 PM81 °FPartly sunny.8 mph70%29.95 "HgN/A
2:00 PM82 °FScattered clouds.10 mph62%29.95 "HgN/A
1:00 PM82 °FPassing clouds.5 mph62%29.98 "HgN/A
12:00 PM82 °FSunny.5 mph66%30.01 "Hg10 mi
11:00 AM79 °FPassing clouds.13 mph70%30.01 "HgN/A
10:00 AM77 °FSunny.8 mph74%30.04 "Hg10 mi
9:30 AM77 °FPassing clouds.6 mph74%30.04 "HgN/A
9:00 AM75 °FPassing clouds.6 mph74%30.04 "HgN/A
8:30 AM73 °FSunny.6 mph78%30.04 "Hg10 mi
8:00 AM72 °FSunny.5 mph83%30.01 "Hg10 mi
Weather by CustomWeather, © 2015

See weather overviewHow to use our weather pages